カタログに戻る

ONEWEB-0528

運用中通信PO
NORAD 54643·PAYLOAD·🇬🇧 United Kingdom

打ち上げ Dec 8, 2022 から Cape Canaveral Space Force Station

Loading…

次のパス (今後24時間)

TLE

最新Source: CelesTrak SupGP

元期: Sep 14, 2026, 14:11 UTC

1 54643C 22166B   26257.59145833 -.00002515  00000+0 -60961-2 0  2574
2 54643  87.9277 226.2011 0002117  77.0875   1.5978 13.21828984    10

AllMySatでONEWEB-0528をリアルタイム追跡

Download on the App Store